User: anonymous   Login
Location: Ermatingen
(47.6706°N, 9.0857°E)
Time: 11:34:07
(UTC+00:00)
Language:

Cosmos 1428 Rocket - Orbit

View from above orbital plane
View from above orbital plane
View from above satellite
View from above satellite

Ground track
Ground track

The orbit data is extracted from the following two-line orbital elements,

1 13758U 83001B   21166.84372055  .00000003  00000-0 -12025-4 0  9994
2 13758  82.9103 295.1680 0026846 203.8411 156.1506 13.78807793932534
Epoch (UTC): 15 June 2021 20:14:57
Eccentricity: 0.0026846
inclination: 82.9103°
perigee height: 948 km
apogee height: 988 km
right ascension of ascending node: 295.1680°
argument of perigee: 203.8411°
revolutions per day: 13.78807793
mean anomaly at epoch: 156.1506°
orbit number at epoch: 93253

The dashed part of the orbit path shows where the satellite is in the earth's shadow,  

DLR